VE3VGJ Weather Reports


time (UTC)temp
C
wind
direction
speed
KPH
gust
KPH
rain 1hr
cm
rain 24hr
cm
rain mn
cm
humidity
%
barometer
mb
20260506051214 7 39 0.0 1.6 0.00 0.00 0.00 89 1009.8
20260506050713 7 38 1.6 1.6 0.00 0.00 0.00 89 1009.9
20260506050209 7 22 1.6 1.6 0.00 0.00 0.00 89 1009.7
20260506044701 7 52 4.8 4.8 0.00 0.00 0.00 90 1009.4
20260506044157 7 15 3.2 3.2 0.00 0.00 0.00 90 1009.3
20260506043654 7 12 3.2 3.2 0.00 0.00 0.00 90 1009.4
20260506043152 7 26 0.0 1.6 0.00 0.00 0.00 90 1009.4
20260506042651 7 33 1.6 1.6 0.00 0.00 0.00 90 1009.3
20260506042149 7 13 3.2 3.2 0.00 0.00 0.00 90 1009.3
20260506041647 7 38 1.6 3.2 0.00 0.00 0.00 90 1009.4
20260506041143 7 6 3.2 3.2 0.00 0.00 0.00 90 1009.3
20260506040641 7 17 0.0 0.0 0.00 0.00 0.00 90 1009.3
20260506040138 7 29 1.6 1.6 0.00 0.00 0.00 90 1009.2
20260506035635 7 36 1.6 1.6 0.00 0.20 0.20 90 1009.1
20260506035131 7 72 1.6 1.6 0.00 0.20 0.20 90 1009.4
20260506034629 7 77 0.0 0.0 0.00 0.20 0.20 90 1009.5
20260506034126 7 77 0.0 0.0 0.00 0.20 0.20 90 1009.6
20260506033623 7 92 1.6 1.6 0.00 0.20 0.20 90 1009.1
20260506033120 7 137 0.0 0.0 0.00 0.20 0.20 90 1009.2
20260506032617 7 137 1.6 1.6 0.00 0.20 0.20 89 1009.1
20260506032114 7 137 0.0 0.0 0.00 0.20 0.20 89 1009.1
20260506031611 7 139 0.0 0.0 0.00 0.20 0.20 89 1009.0
20260506031108 7 140 1.6 1.6 0.00 0.20 0.20 89 1009.1
20260506030607 7 140 1.6 1.6 0.00 0.20 0.20 89 1009.2
20260506030103 7 142 3.2 3.2 0.00 0.20 0.20 88 1009.2
20260506025600 7 126 1.6 1.6 0.00 0.20 0.20 88 1009.2
20260506025056 7 125 0.0 1.6 0.00 0.20 0.20 87 1009.3
20260506024554 7 148 3.2 3.2 0.00 0.20 0.20 87 1009.2
20260506024050 7 197 1.6 1.6 0.00 0.20 0.20 87 1009.5
20260506023545 7 239 0.0 0.0 0.00 0.20 0.20 87 1009.5
20260506023044 7 240 0.0 0.0 0.00 0.20 0.20 87 1009.5
20260506022541 7 239 1.6 1.6 0.00 0.20 0.20 87 1009.7
20260506022038 7 205 1.6 1.6 0.00 0.20 0.20 87 1009.6
20260506021536 7 194 0.0 0.0 0.00 0.20 0.20 86 1009.5
20260506021033 7 194 1.6 1.6 0.00 0.20 0.20 86 1009.3
20260506020530 7 194 0.0 0.0 0.00 0.20 0.20 86 1009.3
20260506020027 6 194 0.0 0.0 0.00 0.20 0.20 86 1009.4
20260506015525 6 194 1.6 1.6 0.00 0.20 0.20 87 1009.1
20260506015022 6 193 0.0 0.0 0.00 0.20 0.20 86 1009.3
20260506014519 6 193 0.0 0.0 0.00 0.20 0.20 86 1009.2
20260506014015 6 202 0.0 0.0 0.00 0.20 0.20 86 1009.2
20260506013513 6 206 1.6 1.6 0.00 0.20 0.20 86 1009.2
20260506013010 6 240 3.2 6.4 0.00 0.20 0.20 85 1009.3
20260506012505 6 190 3.2 3.2 0.00 0.20 0.20 84 1009.1
20260506012003 6 189 1.6 4.8 0.00 0.20 0.20 82 1009.3
20260506011500 7 193 3.2 3.2 0.00 0.20 0.20 80 1009.3
20260506010956 7 200 3.2 3.2 0.00 0.20 0.20 77 1008.9
20260506010456 8 170 0.0 0.0 0.00 0.20 0.20 73 1008.7
20260506005951 9 195 1.6 3.2 0.00 0.20 0.20 70 1008.6
20260506005449 9 45 1.6 1.6 0.00 0.20 0.20 64 1008.6
20260506004944 9 353 0.0 0.0 0.00 0.20 0.20 62 1008.4
20260506004442 10 353 0.0 0.0 0.00 0.20 0.20 59 1008.4
20260506003938 10 353 0.0 0.0 0.00 0.20 0.20 60 1008.3
20260506003435 10 353 0.0 0.0 0.00 0.20 0.20 59 1008.3
20260506002931 10 353 0.0 0.0 0.00 0.20 0.20 60 1008.2
20260506002427 10 353 0.0 0.0 0.00 0.20 0.20 60 1008.3
20260506001923 10 3 1.6 1.6 0.00 0.20 0.20 59 1008.1
20260506001420 10 0 3.2 3.2 0.00 0.20 0.20 59 1007.9
20260506000918 10 1 4.8 3.2 0.00 0.20 0.20 59 1007.8
20260506000416 10 343 1.6 1.6 0.00 0.20 0.20 59 1007.7
20260505235912 10 326 4.8 4.8 0.00 0.20 0.20 59 1007.6
20260505235410 10 21 1.6 1.6 0.00 0.20 0.20 60 1007.7
20260505234906 10 353 1.6 1.6 0.00 0.20 0.20 59 1007.5
20260505234404 10 340 1.6 1.6 0.00 0.20 0.20 60 1007.4
20260505233900 10 6 4.8 4.8 0.00 0.20 0.20 60 1007.4
20260505233358 10 349 6.4 6.4 0.00 0.20 0.20 60 1007.3
20260505232855 10 346 3.2 4.8 0.00 0.20 0.20 60 1007.4
20260505232353 10 357 3.2 4.8 0.00 0.20 0.20 60 1007.3
20260505231850 10 347 1.6 3.2 0.00 0.20 0.20 61 1007.5
20260505231347 10 343 0.0 1.6 0.00 0.20 0.20 60 1007.8
20260505230845 10 350 8.0 9.7 0.00 0.20 0.20 59 1007.6
20260505230342 10 348 3.2 3.2 0.00 0.20 0.20 61 1007.7
20260505225839 10 319 0.0 0.0 0.00 0.20 0.20 62 1007.3
20260505225336 10 351 6.4 6.4 0.00 0.20 0.20 62 1007.5
20260505224831 10 2 6.4 6.4 0.00 0.20 0.20 63 1007.6
20260505224329 10 356 0.0 0.0 0.00 0.20 0.20 66 1007.7
20260505223826 10 318 0.0 0.0 0.00 0.20 0.20 65 1007.7
20260505223323 10 328 1.6 3.2 0.00 0.20 0.20 67 1007.6
20260505222819 10 333 1.6 1.6 0.00 0.20 0.20 67 1007.4
20260505222315 10 340 3.2 3.2 0.00 0.20 0.20 67 1007.4
20260505221812 10 334 3.2 3.2 0.00 0.20 0.20 67 1007.5
20260505221309 10 320 6.4 9.7 0.00 0.20 0.20 66 1007.1
20260505220806 10 320 6.4 12.9 0.00 0.20 0.20 69 1007.2
20260505220303 10 0 3.2 4.8 0.00 0.20 0.20 68 1007.2
20260505215801 10 3 4.8 6.4 0.00 0.20 0.20 69 1007.1
20260505215258 10 356 1.6 1.6 0.00 0.20 0.20 72 1007.2
20260505214756 9 315 4.8 4.8 0.00 0.20 0.20 73 1007.2
20260505214253 9 305 1.6 1.6 0.00 0.20 0.20 75 1006.9
20260505213751 9 340 3.2 4.8 0.00 0.20 0.20 75 1007.2
20260505213248 9 338 3.2 4.8 0.00 0.20 0.20 76 1007.3
20260505212743 9 7 6.4 9.7 0.00 0.20 0.20 77 1006.9
20260505212241 9 331 3.2 3.2 0.00 0.20 0.20 77 1006.8
20260505211738 9 302 3.2 3.2 0.00 0.20 0.20 79 1007.0
20260505211235 9 274 4.8 4.8 0.00 0.20 0.20 79 1007.1
20260505210731 9 314 3.2 3.2 0.00 0.20 0.20 78 1006.9
20260505210228 9 24 6.4 11.3 0.30 0.20 0.20 78 1007.0
20260505205726 8 331 9.7 14.5 0.43 0.20 0.20 79 1006.9
20260505205224 9 265 3.2 3.2 0.43 0.15 0.15 77 1006.9
20260505204720 10 278 4.8 6.4 0.30 0.13 0.13 74 1006.8
20260505204218 10 5 11.3 12.9 0.00 0.08 0.08 74 1006.7
20260505203715 10 359 3.2 3.2 0.00 0.08 0.08 74 1006.7
20260505203212 10 299 3.2 4.8 0.18 0.08 0.08 73 1006.5
20260505202708 10 351 6.4 6.4 0.30 0.08 0.08 72 1006.6
20260505202204 10 344 1.6 1.6 0.30 0.05 0.05 71 1006.5
20260505201700 10 325 1.6 4.8 0.18 0.03 0.03 67 1006.6
20260505201159 11 333 6.4 11.3 0.00 0.00 0.00 62 1006.7
20260505200657 11 310 11.3 14.5 0.00 0.00 0.00 58 1006.0
20260505200153 12 1 11.3 17.7 0.00 0.00 0.00 55 1006.3
20260505195649 12 333 6.4 11.3 0.00 0.00 0.00 53 1005.9
20260505195146 13 318 14.5 17.7 0.00 0.00 0.00 51 1006.0
20260505194644 13 345 12.9 16.1 0.00 0.00 0.00 50 1005.7
20260505194139 13 343 6.4 12.9 0.00 0.00 0.00 51 1005.6
20260505193636 13 43 4.8 6.4 0.00 0.00 0.00 49 1005.4
20260505193133 14 310 3.2 4.8 0.00 0.00 0.00 49 1005.5
20260505192632 14 291 6.4 11.3 0.00 0.00 0.00 49 1005.5
20260505192129 14 330 4.8 6.4 0.00 0.00 0.00 49 1005.3
20260505191627 14 284 9.7 11.3 0.00 0.00 0.00 49 1005.1
20260505191125 14 335 6.4 12.9 0.00 0.00 0.00 49 1004.9
20260505190621 14 237 6.4 6.4 0.00 0.00 0.00 48 1005.0
20260505190116 13 341 6.4 11.3 0.00 0.00 0.00 49 1005.1
20260505185613 14 338 11.3 16.1 0.00 0.00 0.00 47 1005.0
20260505185109 14 291 16.1 16.1 0.00 0.00 0.00 47 1004.6
20260505184606 13 313 4.8 4.8 0.00 0.00 0.00 49 1005.0
20260505184102 14 15 1.6 4.8 0.00 0.00 0.00 49 1004.6
20260505183559 15 348 9.7 9.7 0.00 0.00 0.00 50 1004.5
20260505183057 15 340 6.4 9.7 0.00 0.00 0.00 49 1004.5
20260505182553 15 324 8.0 9.7 0.00 0.00 0.00 50 1004.6
20260505182050 15 3 6.4 9.7 0.00 0.00 0.00 50 1004.6
20260505181546 15 338 11.3 16.1 0.00 0.00 0.00 50 1004.5
20260505181044 15 334 3.2 4.8 0.00 0.00 0.00 52 1004.3
20260505180539 15 269 6.4 9.7 0.00 0.00 0.00 53 1004.4
20260505180038 16 336 6.4 6.4 0.00 0.00 0.00 51 1004.3
20260505175537 16 2 8.0 9.7 0.00 0.00 0.00 52 1004.2
20260505175035 16 334 4.8 4.8 0.00 0.00 0.00 55 1004.0
20260505174532 17 280 6.4 12.9 0.00 0.00 0.00 54 1003.9
20260505174027 16 275 8.0 11.3 0.00 0.00 0.00 56 1003.7
20260505173525 16 300 14.5 16.1 0.00 0.00 0.00 55 1003.4
20260505173021 16 263 9.7 17.7 0.00 0.00 0.00 56 1003.7
20260505172520 16 13 3.2 4.8 0.00 0.00 0.00 56 1003.4
20260505172015 16 305 4.8 6.4 0.00 0.00 0.00 57 1003.1
20260505171510 16 299 4.8 4.8 0.00 0.00 0.00 57 1003.4
20260505171008 15 261 4.8 4.8 0.00 0.00 0.00 58 1003.2
20260505170504 15 302 6.4 6.4 0.00 0.00 0.00 59 1003.4
20260505170000 15 260 9.7 14.5 0.00 0.00 0.00 60 1003.5
20260505165456 15 328 4.8 4.8 0.00 0.00 0.00 63 1003.6
20260505164951 14 317 6.4 9.7 0.00 0.00 0.00 63 1003.6
20260505164448 15 60 3.2 3.2 0.00 0.00 0.00 63 1003.7
20260505163946 15 283 9.7 11.3 0.00 0.00 0.00 63 1003.7
20260505163444 15 225 8.0 12.9 0.00 0.00 0.00 63 1003.7
20260505162944 15 269 12.9 17.7 0.00 0.00 0.00 64 1003.6
20260505162439 15 266 9.7 12.9 0.00 0.00 0.00 64 1003.5
20260505161936 15 271 11.3 12.9 0.00 0.00 0.00 64 1003.3
20260505161432 16 269 14.5 17.7 0.00 0.00 0.00 63 1003.2
20260505160930 16 231 11.3 14.5 0.00 0.00 0.00 63 1003.1
20260505160428 16 201 16.1 22.5 0.00 0.00 0.00 62 1002.7
20260505152904 17 270 11.3 11.3 0.00 0.00 0.00 61 1002.6
20260505152402 17 295 3.2 3.2 0.00 0.00 0.00 60 1002.3
20260505151901 17 293 4.8 6.4 0.00 0.00 0.00 61 1002.1
20260505151358 16 299 6.4 6.4 0.00 0.00 0.00 67 1001.8
20260505150855 15 247 8.0 9.7 0.00 0.00 0.00 67 1001.8
20260505150353 15 256 9.7 11.3 0.00 0.00 0.00 67 1002.0
20260505140323 14 236 12.9 16.1 0.00 0.00 0.00 70 1001.1
20260505130246 12 221 8.0 9.7 0.00 0.00 0.00 76 1000.6
20260505124736 11 243 11.3 14.5 0.00 0.00 0.00 76 1000.4
20260505124233 12 189 9.7 11.3 0.00 0.00 0.00 75 1000.2
20260505123729 12 230 6.4 9.7 0.00 0.00 0.00 75 1000.2
20260505123226 12 247 11.3 16.1 0.00 0.00 0.00 74 1000.1
20260505122722 13 224 8.0 11.3 0.00 0.00 0.00 74 1000.2
20260505122220 12 269 19.3 25.7 0.00 0.00 0.00 75 1000.1
20260505121716 12 251 3.2 4.8 0.00 0.00 0.00 75 1000.0
20260505121213 12 219 16.1 17.7 0.00 0.00 0.00 75 999.9
20260505120709 12 259 9.7 11.3 0.00 0.00 0.00 75 1000.1
20260505120206 12 248 12.9 14.5 0.00 0.00 0.00 75 1000.2
20260505115704 12 244 11.3 12.9 0.00 0.00 0.00 75 1000.0
20260505115203 12 239 9.7 11.3 0.00 0.00 0.00 75 1000.0
20260505114700 13 226 16.1 20.9 0.00 0.00 0.00 74 999.9
20260505114156 13 216 6.4 6.4 0.00 0.00 0.00 74 1000.1
20260505113652 12 221 16.1 20.9 0.00 0.00 0.00 75 1000.2
20260505113149 12 248 9.7 12.9 0.00 0.00 0.00 75 1000.0
20260505112645 12 263 6.4 9.7 0.00 0.00 0.00 76 999.8
20260505112143 12 258 11.3 12.9 0.00 0.00 0.00 75 999.9
20260505111642 13 216 8.0 14.5 0.00 0.00 0.00 74 999.8
20260505111139 13 222 12.9 17.7 0.00 0.00 0.00 73 999.8
20260505110635 13 273 9.7 14.5 0.00 0.00 0.00 73 999.4
20260505110133 13 206 16.1 20.9 0.00 0.00 0.00 74 999.4
20260505102108 12 235 4.8 9.7 0.00 0.00 0.00 77 999.2
20260505101607 12 223 8.0 9.7 0.00 0.00 0.00 77 999.5
20260505101102 12 234 9.7 14.5 0.00 0.00 0.00 78 999.3
20260505100559 12 229 6.4 6.4 0.00 0.00 0.00 78 999.3
20260505100056 12 236 4.8 4.8 0.00 0.00 0.00 78 999.3
20260505095552 12 230 3.2 4.8 0.00 0.00 0.00 78 999.4
20260505095049 12 223 3.2 4.8 0.00 0.00 0.00 78 999.2
20260505094545 12 235 3.2 4.8 0.00 0.00 0.00 78 999.2
20260505094041 12 236 8.0 9.7 0.00 0.00 0.00 78 999.3
20260505093538 12 205 4.8 4.8 0.00 0.00 0.00 78 999.1
20260505093036 12 208 3.2 4.8 0.00 0.00 0.00 78 999.0
20260505092533 12 238 4.8 4.8 0.00 0.00 0.00 77 999.0
20260505092031 12 231 6.4 6.4 0.00 0.00 0.00 77 999.0
20260505091528 13 231 6.4 6.4 0.00 0.00 0.00 76 999.1
20260505091026 13 219 4.8 4.8 0.00 0.00 0.00 77 999.2
20260505090524 13 236 9.7 11.3 0.00 0.00 0.00 76 998.8
20260505090021 13 208 8.0 11.3 0.00 0.00 0.00 76 999.0
20260505085519 13 236 8.0 9.7 0.00 0.00 0.00 76 998.9
20260505085017 13 257 8.0 9.7 0.00 0.00 0.00 76 998.9
20260505084515 13 243 6.4 6.4 0.00 0.00 0.00 76 999.0
20260505084013 13 224 4.8 4.8 0.00 0.00 0.00 75 998.9
20260505083510 13 242 6.4 9.7 0.00 0.00 0.00 75 999.0
20260505083006 13 225 3.2 3.2 0.00 0.00 0.00 76 999.1
20260505082502 13 218 6.4 9.7 0.00 0.00 0.00 77 999.2
20260505081959 13 237 3.2 3.2 0.00 0.00 0.00 77 999.2
20260505081455 13 271 4.8 4.8 0.00 0.00 0.00 76 999.3
20260505080952 13 238 4.8 4.8 0.00 0.00 0.00 76 999.2
20260505080448 12 246 1.6 1.6 0.00 0.00 0.00 77 999.4
20260505075944 12 266 4.8 4.8 0.00 0.00 0.00 77 999.4
20260505075441 12 278 4.8 6.4 0.00 0.00 0.00 78 999.2
20260505074938 12 227 1.6 1.6 0.00 0.00 0.00 78 999.4
20260505074436 12 241 1.6 1.6 0.00 0.00 0.00 77 999.5
20260505073932 12 247 4.8 4.8 0.00 0.00 0.00 77 999.3
20260505073430 12 254 4.8 4.8 0.00 0.00 0.00 76 999.3
20260505072927 12 260 4.8 4.8 0.00 0.00 0.00 76 999.3
20260505072423 12 257 4.8 6.4 0.00 0.00 0.00 76 999.5
20260505071919 12 265 3.2 3.2 0.00 0.00 0.00 75 999.2
20260505071415 12 268 8.0 12.9 0.00 0.00 0.00 75 999.4
20260505070914 12 230 6.4 6.4 0.00 0.00 0.00 75 999.5
20260505070410 12 208 4.8 4.8 0.00 0.00 0.00 75 999.4
20260505065905 12 247 4.8 4.8 0.00 0.00 0.00 75 999.5
20260505065402 13 233 4.8 3.2 0.00 0.00 0.00 74 999.5
20260505064859 13 240 9.7 11.3 0.00 0.00 0.00 74 999.5
20260505064356 12 225 6.4 9.7 0.00 0.00 0.00 75 999.7
20260505063855 12 221 6.4 6.4 0.00 0.00 0.00 75 999.9
20260505063355 12 227 6.4 6.4 0.00 0.00 0.00 75 999.9
20260505062852 12 235 4.8 6.4 0.00 0.00 0.00 75 1000.0
20260505062350 12 255 4.8 4.8 0.00 0.00 0.00 75 999.9
20260505061846 12 200 11.3 12.9 0.00 0.00 0.00 75 1000.1
20260505061344 12 256 8.0 11.3 0.00 0.00 0.00 75 1000.0
20260505060842 12 250 14.5 16.1 0.00 0.00 0.00 74 999.8
20260505060338 12 273 11.3 14.5 0.00 0.00 0.00 74 999.9
20260505055835 12 226 8.0 9.7 0.00 0.00 0.00 75 1000.0